This demonstration page uses our WeatherBlox Daily Observations layout. Learn more.

Left ArrowRight Arrow

34.74481, -87.66753

Hourly Observations for December 20, 2017

Temp ( °F °C ) Dew Point ( °F °C ) Humidity (%) Winds ( mph kmh ) Pressure ( in mb ) Visibility ( mi km ) Precip ( " mm )
12:10 am 00:10 Cloudy with Heavy Rain 59 15 57 13.9 93 93 NE 6 9 30.00 1016 10 16 0.10 2.54
12:18 am 00:18 Cloudy with Rain 59 15 57 13.9 93 93 NNE 6 9 30.00 1016 10 16 0.16 4.06
12:37 am 00:37 Cloudy with Heavy Rain 59 15 57 13.9 93 93 NW 6 9 30.00 1016 10 16 0.26 6.60
12:46 am 00:46 Cloudy with Heavy Rain 59 15 57 13.9 93 93 NNE 3 6 30.00 1016 10 16 0.31 7.87
12:53 am 00:53 Cloudy with Heavy Rain 59 15 57 13.9 93 93 N 5 7 29.98 1015 10 16 0.35 8.89
1:04 am 01:04 Cloudy with Rain 59 15 57 13.9 93 93 N 5 7 30.00 1016 10 16 0.06 1.52
1:33 am 01:33 Cloudy with Heavy Rain 59 15 57 13.9 93 93 NNE 6 9 30.00 1016 10 16 0.19 4.83
1:53 am 01:53 Cloudy with Rain 59 15 57 13.9 93 93 NE 9 15 29.98 1015 10 16 0.26 6.60
2:53 am 02:53 Cloudy with Rain 59 15 57 13.9 93 93 NE 5 7 29.96 1015 10 16 0.21 5.33
3:53 am 03:53 Cloudy with Light Rain 58 14.4 56 13.3 93 93 Calm 29.95 1014 10 16 0.15 3.81
4:16 am 04:16 Cloudy with Heavy Rain 58 14.4 56 13.3 93 93 WNW 3 6 29.97 1015 10 16 0.04 1.02
4:40 am 04:40 Cloudy with Rain 58 14.4 56 13.3 93 93 Calm 29.97 1015 10 16 0.09 2.29
4:49 am 04:49 Cloudy with Rain 57 14 55 13 94 94 E 6 9 29.94 1014 10 16 0.11 2.79
4:53 am 04:53 Cloudy with Light Rain 57 13.9 55 12.8 93 93 E 6 9 29.94 1014 10 16 0.12 3.05
5:01 am 05:01 Cloudy with Rain 58 14.4 56 13.3 93 93 E 6 9 29.94 1014 10 16 0.01 0.25
5:53 am 05:53 Cloudy with Rain 58 14.4 56 13.3 93 93 E 8 13 29.90 1012 10 16 0.11 2.79
6:51 am 06:51 Cloudy 57 14 55 13 94 94 SE 8 13 29.88 1012 10 16 0.08 2.03
6:53 am 06:53 Cloudy 58 14.4 56 13.3 93 93 SE 9 15 29.87 1012 10 16 0.08 2.03
7:53 am 07:53 Cloudy 58 14.4 56 13.3 93 93 E 10 17 29.87 1012 10 16 0.01 0.25
8:37 am 08:37 Mostly Cloudy 59 15 56 13.3 90 90 ESE 10 17 29.83 1010 10 16 0.00 0.03
8:53 am 08:53 Mostly Cloudy 60 15.6 57 13.9 90 90 SE 12 19 29.85 1011 10 16 0.00 0.03
9:53 am 09:53 Mostly Cloudy 62 16.7 58 14.4 86 86 SSE 7 11 29.86 1011 N/A 0.00 0.00
10:00 am 10:00 Cloudy 62 16.7 58 14.4 86 86 S 8 13 29.85 1011 N/A 0.00 0.00
10:20 am 10:20 Cloudy 63 17.2 58 14.4 84 84 S 8 13 29.85 1011 N/A 0.00 0.00
10:53 am 10:53 Cloudy 63 17.2 58 14.4 84 84 S 7 11 29.85 1011 N/A 0.00 0.00
11:53 am 11:53 Cloudy 66 18.9 59 15 78 78 SSE 9 15 29.81 1010 10 16 0.00 0.00
12:11 pm 12:11 Cloudy 67 19.4 60 15.6 79 79 SSE 9 15 29.80 1009 10 16 0.00 0.00
12:53 pm 12:53 Mostly Cloudy 68 20 60 15.6 76 76 S 12 19 29.78 1008 10 16 0.00 0.00
1:30 pm 13:30 Mostly Cloudy 69 20.6 60 15.6 73 73 WSW 9 15 29.77 1008 10 16 0.00 0.00
1:53 pm 13:53 Mostly Cloudy 70 21.1 60 15.6 71 71 WSW 13 20 29.76 1008 10 16 0.00 0.00
2:11 pm 14:11 Mostly Cloudy 69 20.6 59 15 70 70 W 15 24 29.77 1008 10 16 0.00 0.00
2:33 pm 14:33 Mostly Cloudy 70 21.1 59 15 68 68 W 13 20 29.77 1008 10 16 0.00 0.00
2:41 pm 14:41 Partly Cloudy 68 20 57 13.9 68 68 WSW 14 22 29.77 1008 10 16 0.00 0.00
2:53 pm 14:53 Mostly Cloudy 68 20 58 14.4 70 70 W 15 24 29.78 1008 10 16 0.00 0.00
3:53 pm 15:53 Mostly Cloudy 65 18.3 59 15 81 81 W 8 13 29.80 1009 10 16 0.01 0.25
4:20 pm 16:20 Cloudy with Heavy Rain 63 17.2 58 14.4 84 84 W 14 22 29.83 1010 3 5 0.02 0.51
4:33 pm 16:33 Cloudy with Rain 63 17.2 58 14.4 84 84 W 14 22 29.83 1010 5 8 0.04 1.02
4:53 pm 16:53 Cloudy with Light Rain 63 17.2 57 13.9 81 81 WSW 9 15 29.83 1010 10 16 0.06 1.52
5:12 pm 17:12 Cloudy 62 16.7 57 13.9 84 84 WSW 15 24 29.83 1010 10 16 0.00 0.03
5:29 pm 17:29 Cloudy 61 16.1 57 13.9 87 87 WSW 13 20 29.83 1010 10 16 0.00 0.03
5:34 pm 17:34 Cloudy 61 16.1 58 14.4 90 90 W 13 20 29.83 1010 9 14 0.00 0.03
5:53 pm 17:53 Cloudy with Rain 60 15.6 57 13.9 90 90 W 15 24 29.86 1011 2 3 0.02 0.51
6:06 pm 18:06 Cloudy with Light Rain 59 15 56 13.3 90 90 WNW 12 19 29.85 1011 3 5 0.00 0.03
6:53 pm 18:53 Cloudy with Mist and Fog 57 13.9 54 12.2 90 90 NNW 8 13 29.89 1012 3 5 0.01 0.25
7:08 pm 19:08 Cloudy with Mist and Fog 56 13.3 54 12.2 93 93 NNW 5 7 29.91 1013 3 5 0.00 0.00
7:16 pm 19:16 Cloudy with Mist and Fog 56 13.3 54 12.2 93 93 NNW 3 6 29.91 1013 2 3 0.00 0.00
7:36 pm 19:36 Cloudy with Light Rain 56 13.3 53 11.7 90 90 W 8 13 29.91 1013 3 4 0.01 0.25
7:53 pm 19:53 Cloudy with Mist and Fog 56 13.3 53 11.7 90 90 N 7 11 29.92 1013 3 5 0.01 0.25
8:32 pm 20:32 Cloudy with Mist and Fog 55 12.8 52 11.1 90 90 NW 8 13 29.94 1014 3 4 0.01 0.25
8:53 pm 20:53 Cloudy with Mist and Fog 55 12.8 52 11.1 90 90 NNW 7 11 29.93 1013 3 5 0.01 0.25
9:53 pm 21:53 Cloudy 54 12.2 50 10 87 87 NNW 6 9 29.93 1014 10 16 0.00 0.00
10:53 pm 22:53 Cloudy 53 11.7 50 10 89 89 NW 6 9 29.94 1014 10 16 0.00 0.00
11:53 pm 23:53 Cloudy 53 11.7 49 9.4 86 86 NW 3 6 29.95 1014 10 16 0.00 0.00

Powered by AerisWeather